Location: Cussy
(47.0410°N, 4.6412°E)
Time: 16:13:22
(UTC+00:00)

Cosmos 2263 - Pass Details

Date: 30 November 2020
Orbit: 833 x 864 km, 70.9° (Epoch: 28 January)

Event Time Altitude Azimuth Distance (km) Brightness Sun altitude
Rises 17:24:59 0° 335° (NNW) 3,394 7.5 -14.9°
Reaches altitude 10° 17:27:31 10° 340° (NNW) 2,454 6.7 -15.3°
Maximum altitude 17:33:00 52° 57° (ENE) 1,027 4.3 -16.2°
Drops below altitude 10° 17:38:27 10° 134° (SE) 2,439 6.3 -17.1°
Enters shadow 17:40:30 - 138° (SE) 3,200 6.9 -17.4°
